Weather History for Douglas Bisbee, AZ

Change the Weather History Date:

Thursday, January 2, 2014

  Actual Average Record
Temperature  
Mean Temperature 45 °F 46 °F  
Max Temperature 67 °F 62 °F 76 °F (2006)
Min Temperature 23 °F 29 °F 10 °F (2011)
Degree Days  
Heating Degree Days 20 20  
Month to date heating degree days 40 40  
Since 1 July heating degree days 1134 1064  
Cooling Degree Days 0 0  
Month to date cooling degree days 0 0  
Year to date cooling degree days 0 0  
Moisture  
Dew Point 19 °F    
Average Humidity 42    
Maximum Humidity 68    
Minimum Humidity 16    
Precipitation  
Precipitation 0.00 in 0.03 in 0.77 in (1955)
Month to date precipitation 0.00 0.05  
Year to date precipitation 0.00 0.05  
Sea Level Pressure  
Sea Level Pressure 30.15 in    
Wind  
Wind Speed 7 mph (NE)    
Max Wind Speed 14 mph    
Max Gust Speed 19 mph    
Visibility 10 miles    
Events      
T = Trace of Precipitation, MM = Missing Value Source: NWS Daily Summary

Daily Weather History Graph

Daily Weather History Graph

Search for Another Location

Airport:

Trip Planner

Search our weather history database for the weather conditions in past years. The results will help you decide how hot, cold, wet, or windy it might be!

Date:

Astronomy

Jan. 02, 2014 Rise Set
Actual Time 7:17 AM MST 5:27 PM MST
Civil Twilight 6:51 AM MST 5:53 PM MST
Nautical Twilight 6:21 AM MST 6:24 PM MST
Astronomical Twilight 5:51 AM MST 6:53 PM MST
Moon 8:09 AM MST 7:19 PM MST
Length of Visible Light 11h 02m
Length of Day
10h 09m
Waxing Crescent, 3% of the Moon is Illuminated
Jan 2
Waxing Crescent
Jan 7
First Quarter
Jan 15
Full
Jan 23
Last Quarter
Jan 30
New

Hourly Weather History & Observations

Time (MST) Temp. Windchill Dew Point Humidity Pressure Visibility Wind Dir Wind Speed Gust Speed Precip Events Conditions
12:56 AM 33.1 °F - 16.0 °F 50% 30.14 in 10.0 mi Calm Calm - N/A   Clear
1:56 AM 32.0 °F 27.5 °F 16.0 °F 52% 30.14 in 10.0 mi East 4.6 mph - N/A   Clear
2:56 AM 30.0 °F - 16.0 °F 56% 30.15 in 10.0 mi Calm Calm - N/A   Clear
3:56 AM 30.9 °F 23.5 °F 16.0 °F 54% 30.16 in 10.0 mi NNW 8.1 mph - N/A   Clear
4:56 AM 33.1 °F 24.9 °F 18.0 °F 54% 30.16 in 10.0 mi NNW 10.4 mph - N/A   Clear
5:56 AM 27.0 °F - 16.0 °F 63% 30.21 in 10.0 mi Calm Calm - N/A   Clear
6:56 AM 24.1 °F 18.2 °F 15.1 °F 69% 30.24 in 10.0 mi NW 4.6 mph - N/A   Clear
7:56 AM 26.1 °F 21.9 °F 16.0 °F 66% 30.27 in 10.0 mi Variable 3.5 mph - N/A   Clear
8:56 AM 39.0 °F 35.7 °F 19.9 °F 46% 30.25 in 10.0 mi NW 4.6 mph - N/A   Clear
9:56 AM 52.0 °F - 21.0 °F 30% 30.24 in 10.0 mi WNW 3.5 mph - N/A   Clear
10:56 AM 57.9 °F - 21.0 °F 24% 30.20 in 10.0 mi South 5.8 mph - N/A   Clear
11:56 AM 63.0 °F - 19.0 °F 18% 30.16 in 10.0 mi ESE 10.4 mph - N/A   Clear
12:56 PM 64.9 °F - 19.9 °F 18% 30.13 in 10.0 mi ESE 9.2 mph - N/A   Clear
1:56 PM 64.9 °F - 19.0 °F 17% 30.10 in 10.0 mi SE 6.9 mph - N/A   Clear
2:56 PM 66.0 °F - 19.0 °F 17% 30.09 in 10.0 mi ENE 6.9 mph - N/A   Clear
3:56 PM 66.0 °F - 19.0 °F 17% 30.08 in 10.0 mi East 10.4 mph - N/A   Clear
4:56 PM 62.1 °F - 19.9 °F 20% 30.09 in 10.0 mi East 8.1 mph - N/A   Clear
5:56 PM 55.0 °F - 19.9 °F 25% 30.12 in 10.0 mi ENE 9.2 mph - N/A   Clear
6:56 PM 52.0 °F - 21.0 °F 30% 30.14 in 10.0 mi ENE 8.1 mph - N/A   Clear
7:56 PM 46.9 °F - 19.9 °F 34% 30.16 in 10.0 mi WNW 4.6 mph - N/A   Clear
8:56 PM 41.0 °F 36.4 °F 19.0 °F 41% 30.15 in 10.0 mi NW 6.9 mph - N/A   Clear
9:56 PM 39.0 °F 32.8 °F 19.9 °F 46% 30.12 in 10.0 mi North 9.2 mph - N/A   Clear
10:56 PM 39.0 °F 32.3 °F 21.0 °F 49% 30.10 in 10.0 mi North 10.4 mph - N/A   Clear
11:56 PM 39.0 °F 31.8 °F 21.0 °F 49% 30.09 in 10.0 mi North 11.5 mph - N/A   Clear